Previsão horária em Abaete

Hoje, 27 Janeiro, Quarta-feira

Tempo Temperatura Precipitação Vento Pressão Humidade
00:00 +21°C° 0 mm 0 m/s 707 mmHg 88%
01:00 +23°C° 0 mm 1 m/s 706 mmHg 89%
02:00 +22°C° 0 mm 1 m/s 706 mmHg 90%
03:00 +22°C° 0 mm 1 m/s 706 mmHg 91%
04:00 +22°C° 0 mm 1 m/s 706 mmHg 92%
05:00 +21°C° 0 mm 1 m/s 707 mmHg 93%
06:00 +21°C° 0 mm 1 m/s 707 mmHg 94%
07:00 +23°C° 0 mm 2 m/s 707 mmHg 87%
08:00 +24°C° 0 mm 2 m/s 708 mmHg 81%
09:00 +26°C° 0 mm 3 m/s 708 mmHg 75%
10:00 +27°C° 0 mm 3 m/s 708 mmHg 69%
11:00 +28°C° 0 mm 3 m/s 708 mmHg 62%
12:00 +30°C° 0 mm 2 m/s 708 mmHg 56%
13:00 +30°C° 0 mm 2 m/s 707 mmHg 55%
14:00 +30°C° 0 mm 2 m/s 707 mmHg 54%
15:00 +30°C° 0 mm 2 m/s 706 mmHg 53%
16:00 +30°C° 0 mm 1 m/s 706 mmHg 57%
17:00 +29°C° 0 mm 1 m/s 705 mmHg 61%
18:00 +28°C° 0 mm 1 m/s 705 mmHg 64%
19:00 +26°C° 0 mm 1 m/s 705 mmHg 66%
20:00 +25°C° 0 mm 1 m/s 706 mmHg 67%
21:00 +23°C° 0 mm 1 m/s 706 mmHg 69%
22:00 +23°C° 0 mm 1 m/s 706 mmHg 71%
23:00 +22°C° 0 mm 1 m/s 706 mmHg 73%

Amanhã, 28 Janeiro, Quinta-feira

Tempo Temperatura Precipitação Vento Pressão Humidade
00:00 +21°C° 0 mm 1 m/s 706 mmHg 75%
01:00 +19°C° 0 mm 0 m/s 706 mmHg 78%
02:00 +18°C° 0 mm 0 m/s 705 mmHg 80%
03:00 +18°C° 0 mm 0 m/s 705 mmHg 83%
04:00 +18°C° 0 mm 0 m/s 705 mmHg 85%
05:00 +18°C° 0 mm 0 m/s 705 mmHg 87%
06:00 +18°C° 0 mm 0 m/s 705 mmHg 89%
07:00 +22°C° 0 mm 1 m/s 706 mmHg 83%
08:00 +24°C° 0 mm 1 m/s 707 mmHg 77%
09:00 +26°C° 0 mm 2 m/s 708 mmHg 70%
10:00 +27°C° 0 mm 2 m/s 707 mmHg 64%
11:00 +29°C° 0 mm 2 m/s 707 mmHg 59%
12:00 +30°C° 0 mm 2 m/s 707 mmHg 53%
13:00 +30°C° 0 mm 2 m/s 706 mmHg 50%
14:00 +31°C° 0 mm 1 m/s 706 mmHg 48%
15:00 +31°C° 0 mm 1 m/s 705 mmHg 45%
16:00 +30°C° 0 mm 1 m/s 705 mmHg 50%
17:00 +29°C° 0 mm 1 m/s 705 mmHg 56%
18:00 +26°C° 0 mm 0 m/s 705 mmHg 61%
19:00 +25°C° 0 mm 0 m/s 705 mmHg 62%
20:00 +24°C° 0 mm 0 m/s 705 mmHg 63%
21:00 +22°C° 0 mm 0 m/s 706 mmHg 64%
22:00 +22°C° 0 mm 0 m/s 706 mmHg 66%
23:00 +21°C° 0 mm 0 m/s 706 mmHg 68%

Depois de amanhã, 29 Janeiro, Sexta-feira

Tempo Temperatura Precipitação Vento Pressão Humidade
00:00 +23°C° 0 mm 1 m/s 706 mmHg 70%
01:00 +22°C° 0 mm 1 m/s 706 mmHg 72%
02:00 +22°C° 0 mm 1 m/s 706 mmHg 73%
03:00 +21°C° 0 mm 1 m/s 706 mmHg 75%
04:00 +21°C° 0 mm 1 m/s 706 mmHg 77%
05:00 +20°C° 0 mm 1 m/s 706 mmHg 80%
06:00 +20°C° 0 mm 1 m/s 706 mmHg 83%
07:00 +22°C° 0 mm 1 m/s 707 mmHg 77%
08:00 +24°C° 0 mm 1 m/s 707 mmHg 71%
09:00 +26°C° 0 mm 1 m/s 708 mmHg 65%
10:00 +28°C° 0 mm 2 m/s 708 mmHg 60%
11:00 +29°C° 0 mm 2 m/s 708 mmHg 55%
12:00 +31°C° 0 mm 2 m/s 708 mmHg 49%
13:00 +31°C° 0 mm 2 m/s 707 mmHg 50%
14:00 +31°C° 0 mm 1 m/s 706 mmHg 50%
15:00 +31°C° 0 mm 1 m/s 706 mmHg 51%
16:00 +30°C° 0 mm 1 m/s 706 mmHg 54%
17:00 +30°C° 0 mm 1 m/s 705 mmHg 58%
18:00 +29°C° 0 mm 1 m/s 705 mmHg 62%
19:00 +27°C° 0 mm 1 m/s 705 mmHg 64%
20:00 +26°C° 0 mm 1 m/s 705 mmHg 65%
21:00 +25°C° 0 mm 1 m/s 706 mmHg 67%
22:00 +24°C° 0 mm 1 m/s 706 mmHg 70%
23:00 +24°C° 0 mm 1 m/s 706 mmHg 73%

30 Janeiro, Sábado

Tempo Temperatura Precipitação Vento Pressão Humidade
00:00 +23°C° 0 mm 1 m/s 706 mmHg 75%
01:00 +23°C° 0 mm 1 m/s 706 mmHg 79%
02:00 +22°C° 0 mm 1 m/s 706 mmHg 82%
03:00 +22°C° 0 mm 1 m/s 706 mmHg 86%
04:00 +22°C° 0 mm 1 m/s 706 mmHg 88%
05:00 +21°C° 0 mm 1 m/s 707 mmHg 90%
06:00 +21°C° 0 mm 1 m/s 707 mmHg 92%
07:00 +23°C° 0 mm 1 m/s 707 mmHg 84%
08:00 +25°C° 0 mm 2 m/s 708 mmHg 77%
09:00 +27°C° 0 mm 2 m/s 709 mmHg 69%
10:00 +29°C° 0 mm 2 m/s 709 mmHg 64%
11:00 +30°C° 0 mm 2 m/s 708 mmHg 58%
12:00 +32°C° 0 mm 2 m/s 708 mmHg 53%
13:00 +32°C° 0 mm 1 m/s 708 mmHg 54%
14:00 +31°C° 0 mm 1 m/s 707 mmHg 54%
15:00 +31°C° 0 mm 1 m/s 706 mmHg 54%
16:00 +31°C° 0 mm 1 m/s 706 mmHg 58%
17:00 +30°C° 0 mm 1 m/s 706 mmHg 61%
18:00 +29°C° 0 mm 1 m/s 706 mmHg 64%
19:00 +28°C° 0 mm 1 m/s 706 mmHg 66%
20:00 +27°C° 0 mm 1 m/s 706 mmHg 67%
21:00 +25°C° 0 mm 1 m/s 706 mmHg 69%
22:00 +24°C° 0 mm 1 m/s 707 mmHg 72%
23:00 +23°C° 0 mm 1 m/s 707 mmHg 75%

31 Janeiro, Domingo

Tempo Temperatura Precipitação Vento Pressão Humidade
00:00 +23°C° 0 mm 1 m/s 707 mmHg 77%
01:00 +22°C° 0 mm 1 m/s 707 mmHg 79%
02:00 +22°C° 0 mm 1 m/s 707 mmHg 81%
03:00 +19°C° 0 mm 0 m/s 706 mmHg 82%
04:00 +21°C° 0 mm 1 m/s 707 mmHg 84%
05:00 +21°C° 0 mm 1 m/s 707 mmHg 85%
06:00 +20°C° 0 mm 1 m/s 707 mmHg 87%
07:00 +22°C° 0 mm 1 m/s 708 mmHg 80%
08:00 +25°C° 0 mm 1 m/s 708 mmHg 73%
09:00 +27°C° 0 mm 1 m/s 709 mmHg 66%
10:00 +28°C° 0 mm 1 m/s 708 mmHg 61%
11:00 +30°C° 0 mm 1 m/s 708 mmHg 56%
12:00 +32°C° 0 mm 1 m/s 708 mmHg 51%
13:00 +33°C° 0 mm 1 m/s 708 mmHg 48%
14:00 +33°C° 0 mm 1 m/s 707 mmHg 46%
15:00 +31°C° 0 mm 0 m/s 707 mmHg 44%
16:00 +32°C° 0 mm 1 m/s 706 mmHg 50%
17:00 +31°C° 0 mm 1 m/s 706 mmHg 55%
18:00 +29°C° 0 mm 1 m/s 705 mmHg 61%
19:00 +28°C° 0 mm 1 m/s 706 mmHg 62%
20:00 +27°C° 0 mm 1 m/s 706 mmHg 63%
21:00 +25°C° 0 mm 1 m/s 706 mmHg 65%
22:00 +25°C° 0 mm 1 m/s 706 mmHg 66%
23:00 +24°C° 0 mm 1 m/s 706 mmHg 68%

1 Fevereiro, Segunda-feira

Tempo Temperatura Precipitação Vento Pressão Humidade
00:00 +24°C° 0 mm 1 m/s 706 mmHg 69%
01:00 +23°C° 0 mm 1 m/s 706 mmHg 72%
02:00 +23°C° 0 mm 1 m/s 706 mmHg 74%
03:00 +23°C° 0 mm 1 m/s 705 mmHg 77%
04:00 +20°C° 0 mm 0 m/s 706 mmHg 79%
05:00 +20°C° 0 mm 0 m/s 706 mmHg 81%
06:00 +20°C° 0 mm 0 m/s 706 mmHg 84%
07:00 +24°C° 0 mm 1 m/s 707 mmHg 79%
08:00 +25°C° 0 mm 1 m/s 707 mmHg 74%
09:00 +27°C° 0 mm 1 m/s 708 mmHg 69%
10:00 +29°C° 0.2 mm 1 m/s 708 mmHg 64%
11:00 +30°C° 0.2 mm 1 m/s 708 mmHg 60%
12:00 +32°C° 0.2 mm 1 m/s 707 mmHg 56%
13:00 +32°C° 0.4 mm 1 m/s 707 mmHg 55%
14:00 +32°C° 0.4 mm 1 m/s 706 mmHg 55%
15:00 +31°C° 0.4 mm 1 m/s 705 mmHg 54%
16:00 +30°C° 0.1 mm 1 m/s 705 mmHg 60%
17:00 +29°C° 0.1 mm 1 m/s 705 mmHg 66%
18:00 +28°C° 0.1 mm 1 m/s 704 mmHg 72%
19:00 +27°C° 0.3 mm 1 m/s 705 mmHg 75%
20:00 +25°C° 0.3 mm 1 m/s 705 mmHg 78%
21:00 +22°C° 0.3 mm 0 m/s 706 mmHg 80%
22:00 +24°C° 0.5 mm 1 m/s 706 mmHg 83%
23:00 +23°C° 0.5 mm 1 m/s 706 mmHg 86%
Mostrar mais